[[{"header":{"parameterUnit":"m.s-1","parameterCategory":1,"la1":30.2991,"la2":30.254,"lo1":-89.0895,"lo2":-89.0444,"dy":0.0017,"dx":0.0017,"nx":28,"ny":28,"refTime":"2024-04-29T03:00:00:Z","depth":0,"parameterNumber":2,"parameterNumberName":"U-component_of_WINDS"},"data":[0,0,0,0,0,0,0,0,0,0,0,0,0,0,0,0,0,0,0,0,0,0,0,0,0,0,0,0,0,0,0,0,0,0,0,0,0,0,0,0,0,0,0,0,0,0,0,0,0,0,0,0,0,0,0,0,0,0,3.2286,3.2287,0,3.2415,3.2416,3.2418,3.2392,3.239,3.2387,3.2385,3.2522,3.2527,3.2533,0,0,0,0,0,0,0,0,0,0,0,0,0,3.2021,3.2026,3.2286,3.2287,3.2289,3.2415,3.2416,3.2418,3.2392,3.239,3.2387,3.2384,3.252,3.2527,3.2534,0,0,0,0,0,0,0,0,0,0,0,0,0,3.2142,3.2027,3.2285,3.2291,3.2293,3.2414,3.2416,3.2419,3.2393,3.2389,3.2386,3.2383,3.2517,3.2526,3.2535,3.266,0,0,3.2561,3.2565,0,0,0,0,0,0,0,0,3.2135,3.2151,3.2289,3.2291,3.2293,3.2384,3.2373,3.25,3.2394,3.2355,3.2385,3.2381,3.2479,3.2491,3.2523,3.2666,3.2672,3.2562,3.2567,3.2571,3.2574,0,0,0,0,0,0,0,3.2126,3.2146,3.2337,3.2291,3.2293,3.2289,3.2302,3.2397,3.2436,3.2358,3.2357,3.2372,3.2479,3.2514,3.2526,3.2674,3.2562,3.257,3.2575,3.2578,3.2928,3.2932,0,0,0,0,0,0,3.2115,3.2139,3.2333,3.2341,3.2203,3.2296,3.2311,3.2358,3.2434,3.2442,3.2375,3.237,3.2501,3.2516,3.253,3.2683,3.2571,3.2579,3.2584,3.2924,3.2929,3.2933,0,0,0,0,0,0,3.211,3.2133,3.2328,3.2239,3.2264,3.2304,3.2358,3.2363,3.2397,3.2447,3.2454,3.2403,3.2499,3.2518,3.2628,3.2688,3.2583,3.2591,3.2919,3.2926,3.2931,3.2989,0,0,0,0,0,0,3.2102,3.2131,3.2178,3.2241,3.2269,3.2422,3.2361,3.2368,3.2412,3.2407,3.2475,3.2483,3.2498,3.2615,3.2637,3.2698,3.2598,3.2914,3.2922,3.2929,3.2982,3.2996,3.3009,0,0,0,0,0,3.2093,3.219,3.2181,3.2204,3.2328,3.2425,3.2441,3.2454,3.2417,3.2465,3.2497,3.2481,3.2677,3.2626,3.265,3.2715,3.2911,3.292,3.2929,3.2976,3.2994,3.3008,0,0,0,0,0,0,3.2135,3.2198,3.2189,3.2308,3.2361,3.242,3.2482,3.2472,3.2538,3.2531,3.2546,3.2562,3.2674,3.2705,3.2647,3.2841,3.2789,3.2803,3.2817,3.2834,3.2847,3.2838,3.2605,0,0,0,0,0,3.2158,3.223,3.2282,3.2383,3.2409,3.2441,3.2484,3.2489,3.2546,3.2568,3.2608,3.2665,3.2739,3.2788,3.2859,3.2986,3.3002,3.3043,3.3056,3.3066,3.3079,3.3151,3.317,3.2963,3.2963,3.2963,0,0,3.2206,3.225,3.2295,3.2392,3.2434,3.251,3.246,3.2543,3.26,3.2581,3.2687,3.2719,3.2783,3.2902,3.2956,3.2932,3.314,3.3078,3.3086,3.3093,3.3162,3.3182,3.3199,3.2969,3.2968,3.2967,0,0,3.2334,3.2373,3.2462,3.2505,3.2568,3.2589,3.261,3.2671,3.269,3.2797,3.2785,3.2853,3.2981,3.3027,3.3067,3.3213,3.3201,3.3235,3.3306,3.3375,3.3391,3.3406,3.346,3.3478,3.3248,3.3248,3.3248,0,3.2387,3.25,3.2509,3.2593,3.2637,3.2622,3.2713,3.2755,3.2839,3.287,3.284,3.3,3.3042,3.3173,3.3209,3.3241,3.3267,3.3229,3.3388,3.3403,3.3416,3.3468,3.3488,3.3252,3.3251,3.3251,3.3251,0,3.2563,3.2641,3.2705,3.2786,3.2837,3.2924,3.2948,3.2999,3.3,3.3023,3.3133,3.3182,3.3264,3.3295,3.3297,3.3427,3.3409,3.3384,3.3332,3.344,3.3488,3.3508,3.3257,3.3256,3.3255,3.3254,0,0,3.2722,3.2806,3.2829,3.2866,3.2935,3.2996,3.3083,3.3161,3.3205,3.3264,3.3338,3.3446,3.3423,3.3469,3.3476,3.3536,3.3651,3.3504,3.3505,3.3531,3.3799,3.3819,3.3841,3.3642,3.3646,3.3649,3.3794,0,3.2857,3.3009,3.302,3.3158,3.3232,3.3218,3.3294,3.3346,3.337,3.3437,3.3465,3.3542,3.3504,3.3532,3.3591,3.3624,3.3705,3.3614,3.3714,3.3718,3.37,3.3866,3.3888,3.4022,3.3813,3.3816,3.3818,0,3.3036,3.3099,3.3243,3.3302,3.3334,3.3401,3.3474,3.3538,3.3596,3.361,3.3661,3.366,3.3751,3.3694,3.3821,3.3759,3.38,3.3823,3.3828,3.384,3.3776,3.3884,3.4065,3.4086,3.3848,3.3846,3.3843,0,3.314,3.326,3.3363,3.3394,3.3465,3.3513,3.3545,3.36,3.3646,3.371,3.3741,3.3816,3.3857,3.3915,3.3935,3.3891,3.4062,3.4006,3.4078,3.4077,3.4116,3.4113,3.4308,3.4139,3.4139,3.4139,3.4138,0,3.3292,3.3381,3.3411,3.3474,3.3574,3.3587,3.3686,3.3715,3.3764,3.3834,3.3827,3.3893,3.3914,3.3984,3.4,3.4104,3.4122,3.4138,3.4141,3.4139,3.4138,3.4168,3.416,3.4144,3.4143,3.4142,3.4141,0,3.3426,3.3449,3.356,3.3617,3.3633,3.3705,3.3755,3.3817,3.3839,3.3928,3.395,3.3987,3.4069,3.4094,3.4193,3.4204,3.4326,3.432,3.4306,3.4307,3.4378,3.4372,3.46,3.4631,3.4441,3.4443,3.4444,0,3.3522,3.359,3.3655,3.37,3.3734,3.3807,3.3854,3.3869,3.3919,3.399,3.4044,3.4125,3.4191,3.4323,3.436,3.4437,3.4434,3.4509,3.4446,3.4442,3.4437,3.4434,3.4442,3.4521,3.4523,3.4525,3.4526,0,3.3691,3.3699,3.3766,3.3838,3.3894,3.3951,3.4007,3.4045,3.4068,3.4124,3.4208,3.4259,3.4359,3.4441,3.4518,3.4553,3.4545,3.4545,3.4566,3.4566,3.4556,3.4564,3.4341,3.4541,3.4539,3.4538,3.4537,3.4537,3.381,3.3871,3.3926,3.4001,3.4044,3.4096,3.4157,3.4187,3.4256,3.4339,3.4343,3.4434,3.4491,3.4594,3.4633,3.4705,3.4684,3.4714,3.4722,3.4729,3.4736,3.4542,3.4719,3.4719,3.4719,3.4718,3.4718,0,3.3981,3.4015,3.4084,3.4161,3.4221,3.4205,3.4266,3.4317,3.4397,3.445,3.4514,3.4611,3.469,3.4732,3.4811,3.4861,3.4859,3.4881,3.4879,3.4887,3.475,3.4725,3.4881,3.4881,3.4881,3.4881,3.4881,3.4881,3.4076,3.4178,3.4193,3.4316,3.435,3.4438,3.4474,3.4523,3.4565,3.4673,3.4737,3.4764,3.4813,3.4896,3.4968,3.4978,3.5009,3.5034,3.5042,3.4914,3.4897,3.4881,3.4857,3.504,3.504,3.5174,3.5175,3.5176]},{"header":{"parameterUnit":"m.s-1","parameterCategory":1,"la1":30.2991,"la2":30.254,"lo1":-89.0895,"lo2":-89.0444,"dy":0.0017,"dx":0.0017,"nx":28,"ny":28,"refTime":"2024-04-29T03:00:00:Z","depth":0,"parameterNumber":3,"parameterNumberName":"V-component_of_WINDS"},"data":[0,0,0,0,0,0,0,0,0,0,0,0,0,0,0,0,0,0,0,0,0,0,0,0,0,0,0,0,0,0,0,0,0,0,0,0,0,0,0,0,0,0,0,0,0,0,0,0,0,0,0,0,0,0,0,0,0,0,-1.3001,-1.3001,0,-1.298,-1.2979,-1.2979,-1.2956,-1.2955,-1.2955,-1.2955,-1.2931,-1.2931,-1.293,0,0,0,0,0,0,0,0,0,0,0,0,0,-1.3021,-1.3021,-1.3001,-1.3001,-1.3001,-1.298,-1.2979,-1.2979,-1.2956,-1.2955,-1.2955,-1.2955,-1.2931,-1.2931,-1.293,0,0,0,0,0,0,0,0,0,0,0,0,0,-1.3007,-1.3021,-1.3001,-1.2987,-1.2985,-1.298,-1.2979,-1.2979,-1.2956,-1.2955,-1.2955,-1.2955,-1.2931,-1.2931,-1.293,-1.2937,0,0,-1.2929,-1.2928,0,0,0,0,0,0,0,0,-1.3008,-1.3007,-1.2989,-1.2988,-1.2986,-1.297,-1.2978,-1.2965,-1.2956,-1.2967,-1.2955,-1.2954,-1.2944,-1.2943,-1.2939,-1.2936,-1.2935,-1.2929,-1.2928,-1.2928,-1.2928,0,0,0,0,0,0,0,-1.3009,-1.3007,-1.2993,-1.2989,-1.2987,-1.2981,-1.2978,-1.2975,-1.2958,-1.2966,-1.2964,-1.2962,-1.2943,-1.294,-1.2939,-1.2934,-1.2929,-1.2928,-1.2928,-1.2928,-1.2934,-1.2935,0,0,0,0,0,0,-1.3013,-1.3008,-1.2993,-1.2992,-1.2996,-1.2981,-1.2978,-1.2975,-1.2958,-1.2955,-1.2963,-1.2961,-1.2941,-1.2939,-1.2938,-1.2944,-1.2928,-1.2928,-1.2927,-1.2934,-1.2934,-1.2935,0,0,0,0,0,0,-1.3013,-1.3011,-1.2994,-1.3,-1.2997,-1.2981,-1.2978,-1.2975,-1.2972,-1.2956,-1.2953,-1.2962,-1.2941,-1.2939,-1.2937,-1.2943,-1.2927,-1.2927,-1.2933,-1.2934,-1.2935,-1.2956,0,0,0,0,0,0,-1.3014,-1.3012,-1.3014,-1.3,-1.2997,-1.2994,-1.2979,-1.2975,-1.2972,-1.2969,-1.2955,-1.2952,-1.294,-1.2938,-1.2937,-1.2942,-1.2927,-1.2933,-1.2934,-1.2934,-1.2955,-1.2958,-1.296,0,0,0,0,0,-1.3015,-1.3021,-1.3015,-1.3013,-1.3,-1.2995,-1.2993,-1.2979,-1.2972,-1.2974,-1.2964,-1.2952,-1.2943,-1.2938,-1.2936,-1.2941,-1.2932,-1.2933,-1.2934,-1.2954,-1.2957,-1.296,0,0,0,0,0,0,-1.3036,-1.3019,-1.3011,-1.3013,-1.3006,-1.2991,-1.2993,-1.2983,-1.2977,-1.2975,-1.2959,-1.2956,-1.2956,-1.2949,-1.2944,-1.2947,-1.2936,-1.2937,-1.2951,-1.2954,-1.2957,-1.2958,-1.2926,0,0,0,0,0,-1.3041,-1.3038,-1.3024,-1.3027,-1.3023,-1.3009,-1.3006,-1.2997,-1.2988,-1.2984,-1.2974,-1.2965,-1.296,-1.2957,-1.2951,-1.2954,-1.295,-1.2957,-1.2959,-1.2961,-1.2962,-1.2962,-1.2965,-1.2938,-1.2938,-1.2938,0,0,-1.3051,-1.3041,-1.3041,-1.3031,-1.3024,-1.3021,-1.3006,-1.3004,-1.3002,-1.2984,-1.2982,-1.2974,-1.2963,-1.2964,-1.2964,-1.2958,-1.2968,-1.2963,-1.2965,-1.2964,-1.2964,-1.2966,-1.2968,-1.2939,-1.2939,-1.2939,0,0,-1.3067,-1.306,-1.3062,-1.3055,-1.3045,-1.3036,-1.3036,-1.3023,-1.3017,-1.3015,-1.3001,-1.2998,-1.299,-1.2983,-1.2978,-1.2993,-1.2982,-1.2992,-1.3004,-1.3005,-1.3007,-1.3008,-1.3013,-1.3015,-1.2993,-1.2993,-1.2993,0,-1.3081,-1.3077,-1.3064,-1.3063,-1.3059,-1.3043,-1.3044,-1.3038,-1.3027,-1.3024,-1.3018,-1.3007,-1.2999,-1.2997,-1.3001,-1.2998,-1.2998,-1.2993,-1.3008,-1.3009,-1.3011,-1.3014,-1.3016,-1.2994,-1.2994,-1.2994,-1.2993,0,-1.3093,-1.3091,-1.3093,-1.3083,-1.3079,-1.3079,-1.3066,-1.3064,-1.3055,-1.3047,-1.3044,-1.3034,-1.3026,-1.3025,-1.3017,-1.3023,-1.3019,-1.3011,-1.2999,-1.3014,-1.3018,-1.3019,-1.2995,-1.2995,-1.2995,-1.2994,0,0,-1.3121,-1.3104,-1.3105,-1.31,-1.3088,-1.3086,-1.3085,-1.3078,-1.3076,-1.3069,-1.3068,-1.3061,-1.3054,-1.3048,-1.3039,-1.3039,-1.3051,-1.3031,-1.303,-1.3034,-1.3056,-1.3061,-1.3063,-1.3044,-1.3044,-1.3045,-1.3056,0,-1.3134,-1.3133,-1.3121,-1.3123,-1.312,-1.3106,-1.3105,-1.3098,-1.309,-1.3086,-1.3077,-1.3072,-1.3063,-1.3059,-1.306,-1.3049,-1.3055,-1.3049,-1.3041,-1.3041,-1.3043,-1.3065,-1.3071,-1.3082,-1.3058,-1.3058,-1.3058,0,-1.3149,-1.3144,-1.3145,-1.3133,-1.3132,-1.3131,-1.3124,-1.3121,-1.3112,-1.3106,-1.31,-1.309,-1.3088,-1.3079,-1.3075,-1.3071,-1.3068,-1.3063,-1.3063,-1.306,-1.305,-1.3062,-1.3086,-1.3087,-1.306,-1.306,-1.306,0,-1.3168,-1.3161,-1.3161,-1.3157,-1.3143,-1.3143,-1.3138,-1.3128,-1.3125,-1.3118,-1.3116,-1.3109,-1.3105,-1.31,-1.3088,-1.3082,-1.3085,-1.3075,-1.3079,-1.308,-1.3079,-1.3079,-1.3102,-1.308,-1.308,-1.308,-1.308,0,-1.3183,-1.3184,-1.3169,-1.3168,-1.3169,-1.3156,-1.3157,-1.315,-1.3142,-1.314,-1.3127,-1.3125,-1.311,-1.3106,-1.3097,-1.3095,-1.3093,-1.3088,-1.3085,-1.3088,-1.3089,-1.3085,-1.3083,-1.308,-1.308,-1.308,-1.308,0,-1.3204,-1.3193,-1.3192,-1.318,-1.3177,-1.3178,-1.3167,-1.3166,-1.3158,-1.3155,-1.3153,-1.314,-1.3135,-1.3123,-1.3114,-1.3108,-1.3108,-1.3104,-1.3111,-1.3109,-1.3114,-1.3113,-1.3133,-1.3135,-1.3113,-1.3113,-1.3113,0,-1.3213,-1.3214,-1.3202,-1.32,-1.3195,-1.3192,-1.3188,-1.3176,-1.3173,-1.3163,-1.3163,-1.3157,-1.3151,-1.3144,-1.3133,-1.3126,-1.3121,-1.3128,-1.312,-1.3123,-1.3119,-1.3119,-1.3119,-1.313,-1.313,-1.313,-1.3131,0,-1.3231,-1.3226,-1.3222,-1.3216,-1.3213,-1.3207,-1.3201,-1.32,-1.3186,-1.3183,-1.3178,-1.3174,-1.3166,-1.316,-1.3151,-1.3145,-1.3135,-1.3134,-1.3134,-1.3137,-1.314,-1.3137,-1.3115,-1.3133,-1.3133,-1.3132,-1.3132,-1.3132,-1.3246,-1.3245,-1.3237,-1.3233,-1.3227,-1.3222,-1.322,-1.3212,-1.3208,-1.3201,-1.3194,-1.3189,-1.318,-1.3169,-1.3163,-1.3159,-1.3154,-1.3155,-1.3155,-1.3155,-1.3156,-1.3142,-1.3157,-1.3157,-1.3157,-1.3157,-1.3157,0,-1.3262,-1.3256,-1.3253,-1.3245,-1.3242,-1.3234,-1.3227,-1.3224,-1.3221,-1.3214,-1.3209,-1.3203,-1.3197,-1.3186,-1.318,-1.3178,-1.3173,-1.3177,-1.3176,-1.3174,-1.3161,-1.3161,-1.3181,-1.3181,-1.3181,-1.3181,-1.318,-1.318,-1.327,-1.3269,-1.3263,-1.3259,-1.3253,-1.3249,-1.3246,-1.3241,-1.3235,-1.3229,-1.3225,-1.3218,-1.3209,-1.3202,-1.3196,-1.3193,-1.319,-1.3195,-1.319,-1.3178,-1.3175,-1.3173,-1.3173,-1.3195,-1.3195,-1.3204,-1.3204,-1.3204]}]]